Weather History for KGDV - July, 2013

Change the Weather History Date:

Thursday, July 4, 2013

  Actual Average Record
Temperature  
Mean Temperature 74 °F -  
Max Temperature 84 °F 79 °F - (-1)
Min Temperature 64 °F 53 °F - (-1)
Cooling Degree Days 9    
Growing Degree Days 24 (Base 50)    
Moisture  
Dew Point 59 °F    
Average Humidity 62    
Maximum Humidity 94    
Minimum Humidity 35    
Precipitation  
Precipitation 0.00 in - - ()
Sea Level Pressure  
Sea Level Pressure 29.86 in    
Wind  
Wind Speed 10 mph (NNE)    
Max Wind Speed 21 mph    
Max Gust Speed 25 mph    
Visibility 10 miles    
Events      
Averages and records for this station are not official NWS values.
T = Trace of Precipitation, MM = Missing Value Source: NWS Daily Summary

Daily Weather History Graph

Daily Weather History Graph

Search for Another Location

Airport or City:

Trip Planner

Search our weather history database for the weather conditions in past years. The results will help you decide how hot, cold, wet, or windy it might be!

Date:

Astronomy

Jul. 04, 2013 Rise Set
Actual Time 5:09 AM MDT 8:57 PM MDT
Civil Twilight 4:30 AM MDT 9:36 PM MDT
Nautical Twilight 3:36 AM MDT 10:30 PM MDT
Astronomical Twilight 2:18 AM MDT 11:47 PM MDT
Moon 2:34 AM MDT (7/4) 5:59 PM MDT (7/4)
Length of Visible Light 17h 06m
Length of Day
15h 47m
Waning Crescent, 11% of the Moon is Illuminated
Jul 4
Waning Crescent
Jul 8
New
Jul 15
First Quarter
Jul 22
Full
Jul 29
Last Quarter

Hourly Weather History & Observations

Time (MDT) Temp. Heat Index Dew Point Humidity Pressure Visibility Wind Dir Wind Speed Gust Speed Precip Events Conditions
12:15 AM 73.4 °F - 66.2 °F 78% 29.81 in 10.0 mi NNW 10.4 mph - N/A   Clear
12:35 AM 73.4 °F - 66.2 °F 78% 29.81 in 10.0 mi NNW 9.2 mph - N/A   Clear
12:55 AM 71.6 °F - 66.2 °F 83% 29.82 in 10.0 mi West 3.5 mph - N/A   Clear
1:15 AM 71.6 °F - 64.4 °F 78% 29.82 in 10.0 mi Calm Calm - N/A   Clear
1:35 AM 71.6 °F - 64.4 °F 78% 29.82 in 10.0 mi NNW 10.4 mph - N/A   Clear
1:55 AM 69.8 °F - 64.4 °F 83% 29.82 in 10.0 mi NNW 11.5 mph - N/A   Clear
2:15 AM 69.8 °F - 64.4 °F 83% 29.83 in 10.0 mi North 11.5 mph - N/A   Clear
2:55 AM 69.8 °F - 64.4 °F 83% 29.83 in 10.0 mi North 16.1 mph - N/A   Overcast
3:15 AM 69.8 °F - 64.4 °F 83% 29.83 in 10.0 mi North 20.7 mph 25.3 mph N/A   Scattered Clouds
3:35 AM 69.8 °F - 64.4 °F 83% 29.84 in 10.0 mi North 13.8 mph - N/A   Clear
3:55 AM 69.8 °F - 64.4 °F 83% 29.85 in 10.0 mi North 11.5 mph - N/A   Clear
4:15 AM 68.0 °F - 62.6 °F 83% 29.86 in 10.0 mi North 8.1 mph - N/A   Clear
4:35 AM 66.2 °F - 62.6 °F 88% 29.86 in 10.0 mi North 6.9 mph - N/A   Clear
4:55 AM 66.2 °F - 62.6 °F 88% 29.87 in 10.0 mi NNW 11.5 mph - N/A   Clear
5:15 AM 64.4 °F - 62.6 °F 94% 29.87 in 10.0 mi NNW 9.2 mph - N/A   Clear
5:35 AM 64.4 °F - 62.6 °F 94% 29.88 in 10.0 mi NNW 12.7 mph - N/A   Clear
5:55 AM 64.4 °F - 62.6 °F 94% 29.88 in 10.0 mi NNW 10.4 mph - N/A   Clear
6:15 AM 66.2 °F - 62.6 °F 88% 29.89 in 10.0 mi NNW 12.7 mph - N/A   Clear
6:35 AM 66.2 °F - 62.6 °F 88% 29.90 in 10.0 mi NNW 11.5 mph - N/A   Clear
6:55 AM 66.2 °F - 62.6 °F 88% 29.91 in 10.0 mi NNW 9.2 mph - N/A   Clear
7:15 AM 68.0 °F - 62.6 °F 83% 29.91 in 10.0 mi NNW 12.7 mph - N/A   Clear
7:35 AM 69.8 °F - 62.6 °F 78% 29.91 in 10.0 mi NNW 11.5 mph - N/A   Clear
7:55 AM 69.8 °F - 62.6 °F 78% 29.91 in 10.0 mi North 13.8 mph - N/A   Clear
8:15 AM 71.6 °F - 60.8 °F 69% 29.91 in 10.0 mi North 15.0 mph - N/A   Clear
8:35 AM 71.6 °F - 60.8 °F 69% 29.92 in 10.0 mi North 10.4 mph - N/A   Clear
8:55 AM 71.6 °F - 60.8 °F 69% 29.92 in 10.0 mi North 10.4 mph - N/A   Clear
9:15 AM 73.4 °F - 60.8 °F 65% 29.91 in 10.0 mi North 11.5 mph - N/A   Clear
9:35 AM 75.2 °F - 62.6 °F 65% 29.91 in 10.0 mi North 11.5 mph - N/A   Clear
9:55 AM 75.2 °F - 60.8 °F 61% 29.91 in 10.0 mi NNE 11.5 mph - N/A   Clear
10:15 AM 75.2 °F - 60.8 °F 61% 29.91 in 10.0 mi NNE 9.2 mph - N/A   Clear
10:35 AM 78.8 °F - 60.8 °F 54% 29.90 in 10.0 mi NNE 9.2 mph - N/A   Clear
10:55 AM 78.8 °F - 59.0 °F 51% 29.90 in 10.0 mi North 8.1 mph - N/A   Clear
11:15 AM 80.6 °F 81.1 °F 59.0 °F 48% 29.90 in 10.0 mi NNE 11.5 mph 16.1 mph N/A   Clear
11:55 AM 82.4 °F 82.0 °F 57.2 °F 42% 29.89 in 10.0 mi NNW 8.1 mph 16.1 mph N/A   Clear
12:15 PM 80.6 °F 80.5 °F 55.4 °F 42% 29.86 in 10.0 mi NNE 9.2 mph - N/A   Clear
12:35 PM 82.4 °F 82.0 °F 57.2 °F 42% - 10.0 mi NNE 11.5 mph - N/A   Clear
12:55 PM 82.4 °F 81.7 °F 55.4 °F 39% 29.88 in 10.0 mi NE 10.4 mph - N/A   Clear
1:15 PM 82.4 °F 81.4 °F 53.6 °F 37% - 10.0 mi North 5.8 mph - N/A   Clear
1:35 PM 82.4 °F 81.7 °F 55.4 °F 39% 29.86 in 10.0 mi North 8.1 mph - N/A   Clear
1:55 PM 82.4 °F 81.7 °F 55.4 °F 39% 29.85 in 10.0 mi NNE 9.2 mph - N/A   Clear
2:15 PM 84.2 °F 83.0 °F 55.4 °F 37% 29.86 in 10.0 mi West 3.5 mph 16.1 mph N/A   Clear
2:35 PM 84.2 °F 83.0 °F 55.4 °F 37% 29.86 in 10.0 mi NNW 3.5 mph - N/A   Clear
2:55 PM 84.2 °F 82.8 °F 53.6 °F 35% 29.86 in 10.0 mi North 5.8 mph - N/A   Clear
3:15 PM 84.2 °F 82.8 °F 53.6 °F 35% 29.85 in 10.0 mi NNE 10.4 mph - N/A   Clear
3:35 PM 84.2 °F 82.8 °F 53.6 °F 35% 29.85 in 10.0 mi ENE 5.8 mph - N/A   Clear
3:55 PM 84.2 °F 82.8 °F 53.6 °F 35% 29.85 in 10.0 mi NNW 8.1 mph - N/A   Clear
4:55 PM 84.2 °F 83.0 °F 55.4 °F 37% 29.86 in 10.0 mi NNW 6.9 mph - N/A   Clear
5:15 PM 82.4 °F 81.7 °F 55.4 °F 39% 29.86 in 10.0 mi North 8.1 mph - N/A   Clear
5:35 PM 82.4 °F 81.7 °F 55.4 °F 39% 29.86 in 10.0 mi NE 8.1 mph - N/A   Clear
5:55 PM 82.4 °F 81.7 °F 55.4 °F 39% 29.84 in 10.0 mi NE 10.4 mph - N/A   Clear
6:15 PM 82.4 °F 81.7 °F 55.4 °F 39% 29.82 in 10.0 mi East 12.7 mph - N/A   Clear
6:55 PM 80.6 °F 80.5 °F 55.4 °F 42% 29.83 in 10.0 mi NE 10.4 mph - N/A   Clear
7:15 PM 80.6 °F 80.5 °F 55.4 °F 42% 29.82 in 10.0 mi ENE 10.4 mph - N/A   Clear
7:35 PM 80.6 °F 80.5 °F 55.4 °F 42% 29.83 in 10.0 mi ENE 11.5 mph - N/A   Clear
7:55 PM 78.8 °F - 55.4 °F 44% 29.81 in 10.0 mi ENE 10.4 mph - N/A   Clear
8:15 PM 78.8 °F - 55.4 °F 44% 29.82 in 10.0 mi ENE 8.1 mph - N/A   Clear
8:35 PM 75.2 °F - 57.2 °F 53% 29.83 in 10.0 mi East 5.8 mph - N/A   Clear
8:55 PM 73.4 °F - 57.2 °F 57% 29.84 in 10.0 mi ENE 5.8 mph - N/A   Clear
9:15 PM 73.4 °F - 55.4 °F 53% 29.84 in 10.0 mi East 5.8 mph - N/A   Clear
9:35 PM 71.6 °F - 55.4 °F 57% 29.85 in 10.0 mi East 5.8 mph - N/A   Clear
9:55 PM 71.6 °F - 55.4 °F 57% 29.84 in 10.0 mi East 6.9 mph - N/A   Clear
10:15 PM 69.8 °F - 55.4 °F 60% 29.84 in 9.0 mi ENE 6.9 mph - N/A   Clear
10:35 PM 69.8 °F - 55.4 °F 60% 29.84 in 10.0 mi East 6.9 mph - N/A   Clear
10:55 PM 69.8 °F - 57.2 °F 64% 29.83 in 10.0 mi NE 9.2 mph - N/A   Clear
11:15 PM 68.0 °F - 55.4 °F 64% 29.84 in 10.0 mi ENE 6.9 mph - N/A   Clear
11:35 PM 66.2 °F - 57.2 °F 73% 29.84 in 10.0 mi East 6.9 mph - N/A   Clear
11:55 PM 66.2 °F - 57.2 °F 73% 29.85 in 10.0 mi ENE 8.1 mph - N/A   Clear